TimeMDT,TemperatureF,Dew PointF,Humidity,Sea Level PressureIn,VisibilityMPH,Wind Direction,Wind SpeedMPH,Gust SpeedMPH,PrecipitationIn,Events,Conditions,WindDirDegrees,DateUTC
12:17 AM,51.8,35.6,54,29.97,10.0,SW,9.2,-,N/A,,Clear,230,2012-11-02 06:17:00
12:38 AM,51.8,35.6,54,29.97,10.0,SW,10.4,-,N/A,,Clear,220,2012-11-02 06:38:00
12:58 AM,53.6,33.8,47,29.97,10.0,SW,10.4,-,N/A,,Clear,220,2012-11-02 06:58:00
1:18 AM,53.6,32.0,44,29.96,10.0,SW,10.4,-,N/A,,Clear,220,2012-11-02 07:18:00
1:38 AM,53.6,32.0,44,29.96,10.0,SSW,10.4,-,N/A,,Clear,210,2012-11-02 07:38:00
1:58 AM,53.6,32.0,44,29.97,10.0,SW,11.5,-,N/A,,Clear,220,2012-11-02 07:58:00
2:17 AM,53.6,32.0,44,29.97,10.0,SSW,12.7,-,N/A,,Clear,210,2012-11-02 08:17:00
2:37 AM,53.6,30.2,41,29.97,10.0,SSW,11.5,-,N/A,,Clear,210,2012-11-02 08:37:00
2:57 AM,53.6,30.2,41,29.97,10.0,SSW,10.4,-,N/A,,Clear,210,2012-11-02 08:57:00
3:18 AM,51.8,30.2,44,29.97,10.0,SSW,9.2,-,N/A,,Clear,200,2012-11-02 09:18:00
3:38 AM,53.6,28.4,38,29.97,10.0,SSW,8.1,-,N/A,,Clear,210,2012-11-02 09:38:00
3:58 AM,51.8,30.2,44,29.97,10.0,SW,5.8,-,N/A,,Clear,220,2012-11-02 09:58:00
4:18 AM,50.0,30.2,47,29.97,10.0,SW,5.8,-,N/A,,Clear,230,2012-11-02 10:18:00
4:38 AM,51.8,28.4,41,29.98,10.0,WSW,9.2,-,N/A,,Clear,240,2012-11-02 10:38:00
4:58 AM,50.0,30.2,47,29.99,10.0,WNW,6.9,-,N/A,,Clear,290,2012-11-02 10:58:00
5:17 AM,50.0,28.4,43,29.99,10.0,West,5.8,-,N/A,,Clear,270,2012-11-02 11:17:00
5:38 AM,50.0,30.2,47,30.01,10.0,West,6.9,-,N/A,,Clear,270,2012-11-02 11:38:00
5:58 AM,51.8,30.2,44,30.01,10.0,North,6.9,11.5,N/A,,Clear,350,2012-11-02 11:58:00
6:18 AM,50.0,30.2,47,30.02,10.0,North,5.8,-,N/A,,Clear,350,2012-11-02 12:18:00
6:38 AM,50.0,30.2,47,30.02,10.0,North,3.5,-,N/A,,Clear,10,2012-11-02 12:38:00
6:58 AM,50.0,30.2,47,30.03,10.0,NNE,5.8,-,N/A,,Clear,20,2012-11-02 12:58:00
7:49 AM,48.2,37.4,66,30.05,40.0,NNW,3.5,-,N/A,,Mostly Cloudy,340,2012-11-02 13:49:00
8:50 AM,50.0,32.0,50,30.07,40.0,NW,6.9,-,N/A,,Mostly Cloudy,310,2012-11-02 14:50:00
9:48 AM,50.0,32.0,50,30.08,40.0,WNW,4.6,-,N/A,,Mostly Cloudy,300,2012-11-02 15:48:00
10:47 AM,53.6,32.0,44,30.09,40.0,NW,4.6,-,N/A,,Mostly Cloudy,320,2012-11-02 16:47:00
11:47 AM,53.6,32.0,44,30.10,40.0,NNW,6.9,-,N/A,,Mostly Cloudy,340,2012-11-02 17:47:00
12:47 PM,55.4,32.0,41,30.09,40.0,NNE,6.9,-,N/A,,Mostly Cloudy,20,2012-11-02 18:47:00
1:55 PM,55.4,33.8,44,30.08,40.0,ENE,10.4,-,N/A,,Mostly Cloudy,60,2012-11-02 19:55:00
2:52 PM,55.4,32.0,41,30.07,40.0,ENE,10.4,-,N/A,,Mostly Cloudy,60,2012-11-02 20:52:00
3:51 PM,55.4,33.8,44,30.08,40.0,East,9.2,-,N/A,,Mostly Cloudy,100,2012-11-02 21:51:00
4:50 PM,53.6,35.6,51,30.09,40.0,ESE,5.8,-,N/A,,Mostly Cloudy,120,2012-11-02 22:50:00
5:47 PM,50.0,37.4,62,30.10,40.0,SE,4.6,-,N/A,,Mostly Cloudy,140,2012-11-02 23:47:00
6:50 PM,44.6,35.6,71,30.13,10.0,SSE,4.6,-,N/A,,Mostly Cloudy,160,2012-11-03 00:50:00
7:47 PM,41.0,35.6,81,30.13,10.0,SE,6.9,-,N/A,,Scattered Clouds,140,2012-11-03 01:47:00
8:47 PM,39.2,33.8,81,30.14,10.0,SSE,6.9,-,N/A,,Scattered Clouds,150,2012-11-03 02:47:00
8:59 PM,39.2,33.8,81,30.14,10.0,SSE,5.8,-,N/A,,Clear,160,2012-11-03 02:59:00
9:19 PM,39.2,33.8,81,30.15,10.0,South,5.8,-,N/A,,Clear,180,2012-11-03 03:19:00
9:38 PM,41.0,33.8,76,30.16,10.0,South,5.8,-,N/A,,Clear,180,2012-11-03 03:38:00
9:58 PM,39.2,33.8,81,30.16,10.0,South,6.9,-,N/A,,Clear,190,2012-11-03 03:58:00
10:18 PM,39.2,33.8,81,30.17,10.0,South,5.8,-,N/A,,Clear,180,2012-11-03 04:18:00
10:37 PM,39.2,33.8,81,30.17,10.0,South,4.6,-,N/A,,Clear,190,2012-11-03 04:37:00
10:57 PM,37.4,32.0,81,30.17,10.0,South,5.8,-,N/A,,Clear,190,2012-11-03 04:57:00
11:18 PM,39.2,33.8,81,30.17,10.0,South,5.8,-,N/A,,Clear,180,2012-11-03 05:18:00
11:38 PM,37.4,32.0,81,30.17,10.0,South,5.8,-,N/A,,Clear,180,2012-11-03 05:38:00
11:57 PM,37.4,32.0,81,30.18,10.0,South,6.9,-,N/A,,Clear,190,2012-11-03 05:57:00